Regional Weather Roundup
Issued by NWS

Home | Current Version | Previous Version | Text Only | Print | Product List | Glossary On
Versions: 1 2 3 4 5 6 7 8 9 10 11 12 13 14 15 16 17 18 19 20 21 22 23 24 25 26 27
000
ASUS45 KTFX 230110
RWRMT
MONTANA REGIONAL WEATHER ROUNDUP
NATIONAL WEATHER SERVICE GREAT FALLS MT
700 PM MDT MON MAY 22 2017

NOTE: "FAIR" INDICATES FEW OR NO CLOUDS BELOW 12000 FEET WITH NO
SIGNIFICANT WEATHER AND/OR OBSTRUCTIONS TO VISIBILITY.

MTZ001>007-043-230200-
WEST OF THE DIVIDE

CITY           SKY/WX    TMP DP  RH WIND       PRES   REMARKS
KALISPELL      SUNNY     79  38  22 SW5       30.12F
MISSOULA       SUNNY     76  36  23 N15       30.14F
BUTTE          CLOUDY    63  36  36 E8        30.26S
MULLAN PASS    SUNNY     64  32  30 VRB5      30.28F
ANACONDA         N/A     66  36  32 NE7       30.23S
DEER LODGE       N/A     66  39  37 NE6       30.24F
EUREKA           N/A     81  36  19 NE3       30.09F
HAMILTON         N/A     73  39  29 N7        30.16F
LIBBY            N/A     81  36  19 CALM      30.09F
RONAN            N/A     77  36  22 CALM      30.18
$$

MTZ008-052>055-230200-
SOUTHWEST MONTANA

CITY           SKY/WX    TMP DP  RH WIND       PRES   REMARKS
BOZEMAN        CLOUDY    63  45  51 NE5       30.23S
DILLON         CLOUDY    67  36  31 NE18      30.21F
W YELLOWSTONE  CLOUDY    55  32  41 NE12G20   30.29R
ENNIS          PTSUNNY   61  37  41 N16       30.29S
THREE FORKS      N/A     69  37  30 N7        30.20S
$$

MTZ009-010-012-014-046-048-049-054-230200-
EAST SLOPES AND CENTRAL MONTANA

CITY           SKY/WX    TMP DP  RH WIND       PRES   REMARKS
CUT BANK       MOSUNNY   72  34  24 VRB3      30.18F
GREAT FALLS    CLOUDY    69  37  30 W6        30.19F
MALMSTROM AFB  PTSUNNY   65  39  38 N5        30.19F
HELENA         CLOUDY    73  38  27 NE10      30.21R
AUGUSTA          N/A     67  39  36 W6        30.22F
BOWMANS CRNR     N/A     64  37  36 CALM      30.21F
CHOTEAU          N/A     70  39  32 NE7       30.22S
FAIRFIELD      PTSUNNY   69  37  30 S6        30.19F
POWER            N/A     69  36  29 N7        30.19F
RAYNESFORD       N/A     63  37  38 CALM      30.21S
ULM              N/A     67  44  43 W7        30.20F
$$

MTZ011-013-016-021-045-047-050-051-230200-
NORTH CENTRAL MONTANA

CITY           SKY/WX    TMP DP  RH WIND       PRES   REMARKS
HAVRE          SUNNY     72  30  21 NE7       30.16S
LEWISTOWN      SUNNY     64  33  31 N12G17    30.21S
N BAR RANCH      N/A     61  32  33 N10G21    30.24R
CHINOOK          N/A     70  30  23 NW5       30.16F
DENTON           N/A     67  37  33 NE12G30   30.15S
FORT BENTON      N/A     73  28  19 MISG      30.17S
GEYSER           N/A     64  32  30 N12       30.20S
JUDITH GAP       N/A     59  37  43 N14       30.22R
STANFORD         N/A     63  31  30 N15G22    30.22S
WINIFRED         N/A     67  29  24 N10       30.18S
$$

MTZ017>020-022>027-061-062-230200-
NORTHEAST MONTANA

CITY           SKY/WX    TMP DP  RH WIND       PRES   REMARKS
GLASGOW        CLOUDY    65  31  28 N15       30.14S
JORDAN           N/A     67  31  26 NE13      30.15R
SIDNEY         CLOUDY    65  30  27 N17       30.08R
WOLF POINT     SUNNY     69  31  24 N16G25    30.12R
MALTA          MOSUNNY   68  32  26 N9        30.15S
PLENTYWOOD       N/A     64  32  29 N16G22    30.10R
POPLAR           N/A     66  30  26 N15       30.12R
$$

MTZ028>42-056>058-230200-
SOUTHCENTRAL AND SOUTHEAST MONTANA

CITY           SKY/WX    TMP DP  RH WIND       PRES   REMARKS
BAKER          PTSUNNY   60  36  40 N18       30.11S
BILLINGS       MOSUNNY   66  34  30 NE13      30.18R
LIVINGSTON     CLOUDY    62  42  47 SW12      30.23S
MILES CITY     CLOUDY    58  41  53 CALM      30.14R
BIG TIMBER     PTSUNNY   61  43  51 W7        30.26R
EKALAKA          N/A     54  38  54 NW9       30.10S
FORSYTH          N/A     64  37  36 NE8G16    30.14R
LAUREL           N/A     66  36  33 N6        30.16F
ROUNDUP          N/A     66  33  29 N9        30.09R
$$

REGIONAL REPORTS...DAKOTAS

CITY           SKY/WX    TMP DP  RH WIND       PRES   REMARKS
WILLISTON      CLOUDY    66  34  30 N12       30.07R
MINOT          CLOUDY    61  31  32 N24       30.01R
DICKINSON      CLOUDY    58  33  39 N12       30.04R
BEACH          PTSUNNY   61  32  33 N16       30.12R
TIOGA          CLOUDY    61  32  33 N10       30.07R
WATFORD CITY   PTSUNNY   63  34  34 N12       30.06R
BISMARCK       CLOUDY    62  38  40 NW10      29.98F
GRAND FORKS    CLOUDY    52  48  86 N14       29.89R
FARGO          LGT RAIN  50  47  89 N10       29.88R
BUFFALO SD       N/A     58  37  45 N16       30.03R
RAPID CITY     MOSUNNY   50  43  77 NW15      30.10R
$$

REGIONAL REPORTS...WYOMING/IDAHO/WASHINGTON

CITY           SKY/WX    TMP DP  RH WIND       PRES   REMARKS
GILLETTE       CLOUDY    53  42  66 CALM      30.16S
SHERIDAN       MOSUNNY   60  42  51 N10G18    30.17F
BUFFALO WY     SUNNY     51  39  63 NW10      30.20S
CODY           SUNNY     55  39  54 SW8       30.25S
YELLOWSTONE LA   N/A     46  34  62 CALM      30.36S
IDAHO FALLS    PTSUNNY   72  38  29 SW8       30.16F
SALMON         SUNNY     72  43  35 N9        30.12F
BOISE          SUNNY     80  40  23 NW12      30.09F
SPOKANE        MOSUNNY   82  37  20 CALM      30.12F
$$

REGIONAL REPORTS...ALBERTA

CITY           SKY/WX    TMP DP  RH WIND       PRES   REMARKS
EDMONTON       SUNNY     75  41  29 SW5       30.03F
CALGARY        MOSUNNY   73  37  27 S12       30.11F
LETHBRIDGE     MOSUNNY   72  43  35 E3        30.14F
MEDICINE HAT   MOSUNNY   70  34  26 N5        30.15F
WATERTON GATE    N/A     70  36  28 E8          N/A
CARDSTON         N/A     73  34  23 SE3         N/A
MILK RIVER       N/A     72  36  26 NE7         N/A
$$

REGIONAL REPORTS...SASKATCHEWAN

CITY           SKY/WX    TMP DP  RH WIND       PRES   REMARKS
SWIFT CURRENT  SUNNY     64  32  29 NE9       30.17S
REGINA         MOSUNNY   66  28  24 N16G22    30.10S
SASKATOON      PTSUNNY   70  32  24 N5        30.15R
CYPRESS HILLS    N/A     59  30  33 NE3         N/A
VAL MARIE        N/A     64  28  25 NE15        N/A
ROCKGLEN         N/A     61  32  33 N7          N/A
ASSINIBOIA       N/A     73  41  31 S7          N/A
$$




USA.gov is the U.S. government's official web portal to all federal, state and local government web resources and services.